| time (UTC) | temp F | wind direction | speed MPH | gust MPH | rain 1hr in | rain 24hr in | rain mn in | humidity % | barometer mb |
| 20260507071516 | 56 | 0 | 2.0 | 5.0 | 0.00 | 0.32 | 0.00 | 99 | 1005.6 |
| 20260507070535 | 56 | 0 | 2.0 | 4.0 | 0.00 | 0.32 | 0.00 | 99 | 1005.4 |
| 20260507065516 | 56 | 0 | 1.0 | 5.0 | 0.00 | 0.32 | 0.00 | 99 | 1005.3 |
| 20260507064516 | 56 | 0 | 2.0 | 6.0 | 0.00 | 0.32 | 0.00 | 98 | 1005.4 |
| 20260507063516 | 57 | 0 | 2.0 | 6.0 | 0.00 | 0.32 | 0.00 | 98 | 1005.5 |
| 20260507062515 | 57 | 0 | 2.0 | 9.0 | 0.00 | 0.32 | 0.00 | 99 | 1005.7 |
| 20260507061516 | 57 | 0 | 3.0 | 10.0 | 0.00 | 0.32 | 0.00 | 99 | 1005.5 |
| 20260507060515 | 57 | 0 | 3.0 | 9.0 | 0.00 | 0.32 | 0.00 | 99 | 1005.5 |
| 20260507055517 | 57 | 0 | 4.0 | 9.0 | 0.00 | 0.32 | 0.00 | 99 | 1005.7 |
| 20260507054515 | 57 | 0 | 3.0 | 8.0 | 0.00 | 0.32 | 0.00 | 98 | 1005.8 |
| 20260507053535 | 57 | 0 | 3.0 | 11.0 | 0.00 | 0.32 | 0.00 | 98 | 1006.1 |
| 20260507052517 | 57 | 0 | 6.0 | 18.0 | 0.00 | 0.32 | 0.00 | 99 | 1006.4 |
| 20260507051517 | 58 | 0 | 4.0 | 11.0 | 0.00 | 0.32 | 0.00 | 99 | 1006.4 |
| 20260507050517 | 58 | 0 | 5.0 | 12.0 | 0.00 | 0.32 | 0.00 | 99 | 1006.2 |
| 20260507045517 | 57 | 0 | 5.0 | 10.0 | 0.00 | 0.32 | 0.00 | 99 | 1006.3 |
| 20260507044538 | 58 | 0 | 4.0 | 12.0 | 0.00 | 0.32 | 0.00 | 98 | 1006.4 |
| 20260507043517 | 58 | 0 | 4.0 | 11.0 | 0.00 | 0.32 | 0.00 | 98 | 1006.5 |
| 20260507042517 | 58 | 0 | 5.0 | 13.0 | 0.00 | 0.32 | 0.00 | 98 | 1006.6 |
| 20260507041517 | 58 | 0 | 4.0 | 18.0 | 0.00 | 0.32 | 0.00 | 98 | 1006.7 |
| 20260507040539 | 58 | 0 | 3.0 | 11.0 | 0.00 | 0.32 | 0.00 | 98 | 1006.6 |
| 20260507035517 | 58 | 0 | 5.0 | 14.0 | 0.00 | 0.32 | 0.32 | 98 | 1006.6 |
| 20260507034516 | 58 | 0 | 6.0 | 15.0 | 0.00 | 0.32 | 0.32 | 98 | 1006.7 |
| 20260507033516 | 58 | 0 | 8.0 | 17.0 | 0.00 | 0.32 | 0.32 | 98 | 1006.6 |
| 20260507032516 | 58 | 0 | 7.0 | 14.0 | 0.00 | 0.32 | 0.32 | 98 | 1006.4 |
| 20260507031516 | 58 | 0 | 5.0 | 17.0 | 0.00 | 0.32 | 0.32 | 98 | 1006.2 |
| 20260507030516 | 58 | 0 | 6.0 | 19.0 | 0.00 | 0.32 | 0.32 | 98 | 1006.3 |
| 20260507025516 | 58 | 0 | 6.0 | 14.0 | 0.00 | 0.32 | 0.32 | 98 | 1006.6 |
| 20260507024537 | 58 | 0 | 5.0 | 13.0 | 0.00 | 0.32 | 0.32 | 98 | 1006.9 |
| 20260507023517 | 58 | 0 | 6.0 | 16.0 | 0.01 | 0.32 | 0.32 | 98 | 1007.0 |
| 20260507022516 | 58 | 0 | 5.0 | 15.0 | 0.01 | 0.32 | 0.32 | 98 | 1007.1 |
| 20260507021516 | 58 | 0 | 5.0 | 18.0 | 0.01 | 0.32 | 0.32 | 98 | 1007.3 |
| 20260507020516 | 58 | 0 | 5.0 | 13.0 | 0.01 | 0.32 | 0.32 | 98 | 1007.2 |
| 20260507015516 | 58 | 0 | 6.0 | 11.0 | 0.02 | 0.32 | 0.32 | 98 | 1007.4 |
| 20260507014517 | 58 | 0 | 8.0 | 16.0 | 0.03 | 0.32 | 0.32 | 98 | 1007.7 |
| 20260507013516 | 58 | 0 | 8.0 | 18.0 | 0.06 | 0.31 | 0.31 | 98 | 1007.6 |
| 20260507012516 | 58 | 0 | 7.0 | 23.0 | 0.11 | 0.31 | 0.31 | 98 | 1007.6 |
| 20260507011516 | 58 | 0 | 6.0 | 15.0 | 0.15 | 0.31 | 0.31 | 98 | 1007.7 |
| 20260507010516 | 58 | 0 | 7.0 | 17.0 | 0.16 | 0.31 | 0.31 | 98 | 1007.9 |
| 20260507005516 | 57 | 0 | 7.0 | 18.0 | 0.17 | 0.30 | 0.30 | 98 | 1007.8 |
| 20260507004516 | 57 | 0 | 8.0 | 23.0 | 0.17 | 0.29 | 0.29 | 98 | 1007.8 |
| 20260507003516 | 57 | 0 | 7.0 | 16.0 | 0.14 | 0.25 | 0.25 | 97 | 1007.7 |
| 20260507002516 | 57 | 0 | 6.0 | 15.0 | 0.11 | 0.20 | 0.20 | 97 | 1007.6 |
| 20260507001536 | 57 | 0 | 6.0 | 16.0 | 0.11 | 0.16 | 0.16 | 97 | 1007.6 |
| 20260507000516 | 57 | 0 | 6.0 | 13.0 | 0.11 | 0.15 | 0.15 | 97 | 1007.6 |
| 20260506235516 | 58 | 0 | 7.0 | 16.0 | 0.13 | 0.13 | 0.13 | 97 | 1007.8 |
| 20260506234536 | 58 | 0 | 7.0 | 15.0 | 0.12 | 0.12 | 0.12 | 96 | 1007.9 |
| 20260506233516 | 58 | 0 | 9.0 | 26.0 | 0.11 | 0.11 | 0.11 | 96 | 1008.0 |
| 20260506232536 | 58 | 0 | 7.0 | 18.0 | 0.09 | 0.09 | 0.09 | 95 | 1008.1 |
| 20260506231516 | 58 | 0 | 8.0 | 18.0 | 0.05 | 0.05 | 0.05 | 94 | 1008.3 |
| 20260506230516 | 59 | 0 | 7.0 | 18.0 | 0.04 | 0.04 | 0.04 | 93 | 1008.4 |
| 20260506225536 | 60 | 0 | 6.0 | 19.0 | 0.00 | 0.00 | 0.00 | 90 | 1008.3 |
| 20260506224516 | 60 | 0 | 8.0 | 18.0 | 0.00 | 0.00 | 0.00 | 89 | 1008.3 |
| 20260506223516 | 61 | 0 | 7.0 | 20.0 | 0.00 | 0.00 | 0.00 | 88 | 1008.1 |
| 20260506222515 | 61 | 0 | 7.0 | 18.0 | 0.00 | 0.00 | 0.00 | 87 | 1008.2 |
| 20260506221516 | 60 | 0 | 6.0 | 15.0 | 0.00 | 0.00 | 0.00 | 87 | 1008.4 |
| 20260506220515 | 61 | 0 | 6.0 | 12.0 | 0.00 | 0.00 | 0.00 | 87 | 1008.6 |
| 20260506215536 | 61 | 0 | 7.0 | 17.0 | 0.00 | 0.00 | 0.00 | 87 | 1008.4 |
| 20260506214516 | 61 | 0 | 7.0 | 15.0 | 0.00 | 0.00 | 0.00 | 86 | 1008.7 |
| 20260506213515 | 61 | 0 | 7.0 | 22.0 | 0.00 | 0.00 | 0.00 | 86 | 1008.8 |
| 20260506212535 | 61 | 0 | 7.0 | 17.0 | 0.00 | 0.00 | 0.00 | 85 | 1008.8 |
| 20260506211515 | 62 | 0 | 6.0 | 15.0 | 0.00 | 0.00 | 0.00 | 85 | 1008.7 |
| 20260506210515 | 62 | 0 | 9.0 | 24.0 | 0.00 | 0.00 | 0.00 | 84 | 1008.8 |
| 20260506205516 | 63 | 0 | 8.0 | 21.0 | 0.00 | 0.00 | 0.00 | 84 | 1009.0 |
| 20260506204519 | 63 | 0 | 8.0 | 16.0 | 0.00 | 0.00 | 0.00 | 83 | 1008.8 |
| 20260506203517 | 63 | 0 | 8.0 | 22.0 | 0.00 | 0.00 | 0.00 | 83 | 1009.2 |
| 20260506202537 | 63 | 0 | 9.0 | 22.0 | 0.00 | 0.00 | 0.00 | 83 | 1009.4 |
| 20260506201517 | 63 | 0 | 7.0 | 19.0 | 0.00 | 0.00 | 0.00 | 82 | 1009.4 |
| 20260506200518 | 63 | 0 | 7.0 | 21.0 | 0.00 | 0.00 | 0.00 | 83 | 1009.6 |
| 20260506195517 | 63 | 0 | 6.0 | 16.0 | 0.00 | 0.00 | 0.00 | 83 | 1009.4 |
| 20260506194518 | 63 | 0 | 6.0 | 21.0 | 0.00 | 0.00 | 0.00 | 83 | 1009.5 |
| 20260506193517 | 63 | 0 | 6.0 | 16.0 | 0.00 | 0.00 | 0.00 | 83 | 1009.5 |
| 20260506192517 | 63 | 0 | 8.0 | 19.0 | 0.00 | 0.00 | 0.00 | 82 | 1009.5 |
| 20260506191517 | 63 | 203 | 7.0 | 18.0 | 0.00 | 0.00 | 0.00 | 81 | 1009.8 |
| 20260506190517 | 64 | 203 | 9.0 | 19.0 | 0.00 | 0.00 | 0.00 | 81 | 1010.0 |
| 20260506185639 | 64 | 203 | 6.0 | 18.0 | 0.00 | 0.00 | 0.00 | 81 | 1010.2 |
| 20260506184517 | 64 | 203 | 7.0 | 20.0 | 0.00 | 0.00 | 0.00 | 80 | 1010.5 |
| 20260506183517 | 65 | 180 | 7.0 | 19.0 | 0.00 | 0.00 | 0.00 | 80 | 1010.5 |
| 20260506182518 | 66 | 0 | 7.0 | 17.0 | 0.00 | 0.00 | 0.00 | 78 | 1010.8 |
| 20260506181517 | 67 | 0 | 7.0 | 25.0 | 0.00 | 0.00 | 0.00 | 77 | 1011.0 |
| 20260506180538 | 67 | 0 | 8.0 | 21.0 | 0.00 | 0.00 | 0.00 | 77 | 1010.9 |
| 20260506175537 | 66 | 203 | 7.0 | 20.0 | 0.00 | 0.00 | 0.00 | 79 | 1011.0 |
| 20260506174517 | 65 | 203 | 8.0 | 20.0 | 0.00 | 0.00 | 0.00 | 80 | 1011.0 |
| 20260506173518 | 65 | 180 | 9.0 | 23.0 | 0.00 | 0.00 | 0.00 | 81 | 1010.9 |
| 20260506172517 | 64 | 203 | 9.0 | 20.0 | 0.00 | 0.00 | 0.00 | 80 | 1011.0 |
| 20260506171518 | 64 | 203 | 7.0 | 17.0 | 0.00 | 0.00 | 0.00 | 81 | 1011.3 |
| 20260506170537 | 64 | 180 | 7.0 | 19.0 | 0.00 | 0.00 | 0.00 | 81 | 1011.4 |
| 20260506165537 | 65 | 180 | 7.0 | 18.0 | 0.00 | 0.00 | 0.00 | 80 | 1011.7 |
| 20260506164517 | 66 | 203 | 10.0 | 21.0 | 0.00 | 0.00 | 0.00 | 78 | 1011.7 |
| 20260506163517 | 66 | 203 | 10.0 | 23.0 | 0.00 | 0.00 | 0.00 | 78 | 1011.9 |
| 20260506162517 | 65 | 203 | 8.0 | 24.0 | 0.00 | 0.00 | 0.00 | 79 | 1011.9 |
| 20260506161517 | 66 | 0 | 6.0 | 20.0 | 0.00 | 0.00 | 0.00 | 79 | 1012.2 |
| 20260506160517 | 66 | 0 | 7.0 | 19.0 | 0.00 | 0.00 | 0.00 | 79 | 1012.4 |
| 20260506155517 | 66 | 0 | 9.0 | 29.0 | 0.00 | 0.00 | 0.00 | 78 | 1012.5 |
| 20260506154518 | 66 | 0 | 7.0 | 21.0 | 0.00 | 0.00 | 0.00 | 79 | 1012.6 |
| 20260506153537 | 65 | 0 | 9.0 | 25.0 | 0.00 | 0.00 | 0.00 | 80 | 1012.4 |
| 20260506152517 | 65 | 0 | 8.0 | 28.0 | 0.00 | 0.00 | 0.00 | 80 | 1012.6 |
| 20260506151516 | 64 | 0 | 11.0 | 24.0 | 0.00 | 0.00 | 0.00 | 80 | 1012.5 |
| 20260506150517 | 65 | 0 | 7.0 | 16.0 | 0.00 | 0.00 | 0.00 | 81 | 1012.5 |
| 20260506145517 | 64 | 0 | 8.0 | 18.0 | 0.00 | 0.00 | 0.00 | 81 | 1012.5 |
| 20260506144518 | 65 | 0 | 8.0 | 26.0 | 0.00 | 0.00 | 0.00 | 79 | 1012.3 |
| 20260506143517 | 65 | 0 | 10.0 | 33.0 | 0.00 | 0.00 | 0.00 | 79 | 1012.5 |
| 20260506142518 | 65 | 0 | 8.0 | 24.0 | 0.00 | 0.00 | 0.00 | 81 | 1012.7 |
| 20260506141517 | 64 | 0 | 7.0 | 19.0 | 0.00 | 0.00 | 0.00 | 81 | 1012.9 |
| 20260506140517 | 64 | 0 | 8.0 | 27.0 | 0.00 | 0.00 | 0.00 | 81 | 1012.8 |
| 20260506135517 | 64 | 0 | 8.0 | 25.0 | 0.00 | 0.00 | 0.00 | 82 | 1012.7 |
| 20260506134517 | 63 | 0 | 10.0 | 22.0 | 0.00 | 0.00 | 0.00 | 83 | 1012.5 |
| 20260506133517 | 63 | 0 | 10.0 | 21.0 | 0.00 | 0.00 | 0.00 | 83 | 1012.5 |
| 20260506132517 | 63 | 0 | 7.0 | 19.0 | 0.00 | 0.00 | 0.00 | 83 | 1012.5 |
| 20260506131517 | 63 | 0 | 4.0 | 12.0 | 0.00 | 0.00 | 0.00 | 85 | 1012.7 |
| 20260506130516 | 62 | 0 | 9.0 | 24.0 | 0.00 | 0.00 | 0.00 | 85 | 1012.8 |
| 20260506125538 | 62 | 0 | 7.0 | 16.0 | 0.00 | 0.00 | 0.00 | 84 | 1012.8 |
| 20260506124516 | 62 | 0 | 8.0 | 18.0 | 0.00 | 0.00 | 0.00 | 85 | 1012.8 |
| 20260506123517 | 61 | 0 | 7.0 | 20.0 | 0.00 | 0.00 | 0.00 | 87 | 1012.7 |
| 20260506122516 | 60 | 0 | 6.0 | 21.0 | 0.00 | 0.00 | 0.00 | 89 | 1012.9 |
| 20260506121517 | 59 | 0 | 6.0 | 18.0 | 0.00 | 0.00 | 0.00 | 89 | 1013.1 |
| 20260506120536 | 60 | 0 | 8.0 | 18.0 | 0.00 | 0.00 | 0.00 | 88 | 1013.0 |
| 20260506115516 | 60 | 0 | 6.0 | 17.0 | 0.00 | 0.00 | 0.00 | 88 | 1013.0 |
| 20260506114516 | 61 | 0 | 6.0 | 19.0 | 0.00 | 0.00 | 0.00 | 88 | 1013.0 |
| 20260506113516 | 60 | 0 | 5.0 | 16.0 | 0.00 | 0.00 | 0.00 | 89 | 1012.9 |
| 20260506112516 | 60 | 0 | 6.0 | 18.0 | 0.00 | 0.00 | 0.00 | 90 | 1013.0 |
| 20260506111516 | 59 | 0 | 4.0 | 9.0 | 0.00 | 0.00 | 0.00 | 91 | 1012.9 |
| 20260506110516 | 59 | 0 | 5.0 | 14.0 | 0.00 | 0.00 | 0.00 | 91 | 1013.0 |
| 20260506105516 | 59 | 0 | 7.0 | 14.0 | 0.00 | 0.00 | 0.00 | 91 | 1012.9 |
| 20260506104516 | 59 | 0 | 6.0 | 15.0 | 0.00 | 0.00 | 0.00 | 92 | 1012.9 |
| 20260506103516 | 58 | 0 | 4.0 | 12.0 | 0.00 | 0.00 | 0.00 | 93 | 1012.9 |
| 20260506102517 | 58 | 0 | 7.0 | 20.0 | 0.00 | 0.00 | 0.00 | 93 | 1012.9 |
| 20260506101516 | 58 | 0 | 7.0 | 17.0 | 0.00 | 0.00 | 0.00 | 93 | 1013.0 |
| 20260506100516 | 57 | 0 | 7.0 | 16.0 | 0.00 | 0.00 | 0.00 | 94 | 1012.8 |
| 20260506095516 | 57 | 0 | 7.0 | 17.0 | 0.00 | 0.00 | 0.00 | 94 | 1012.9 |
| 20260506094538 | 57 | 0 | 5.0 | 18.0 | 0.00 | 0.00 | 0.00 | 94 | 1012.9 |
| 20260506093517 | 57 | 0 | 7.0 | 18.0 | 0.00 | 0.00 | 0.00 | 93 | 1013.0 |
| 20260506092516 | 57 | 0 | 7.0 | 15.0 | 0.00 | 0.00 | 0.00 | 94 | 1012.8 |
| 20260506091516 | 57 | 0 | 7.0 | 17.0 | 0.00 | 0.00 | 0.00 | 94 | 1012.9 |
| 20260506090536 | 58 | 0 | 6.0 | 18.0 | 0.00 | 0.00 | 0.00 | 93 | 1013.0 |
| 20260506085516 | 58 | 0 | 6.0 | 13.0 | 0.00 | 0.00 | 0.00 | 94 | 1012.9 |
| 20260506084516 | 58 | 0 | 6.0 | 18.0 | 0.00 | 0.00 | 0.00 | 93 | 1012.9 |
| 20260506083516 | 58 | 0 | 5.0 | 17.0 | 0.00 | 0.00 | 0.00 | 93 | 1013.0 |
| 20260506082516 | 58 | 0 | 6.0 | 14.0 | 0.00 | 0.00 | 0.00 | 93 | 1013.0 |
| 20260506081536 | 58 | 0 | 6.0 | 15.0 | 0.00 | 0.00 | 0.00 | 94 | 1013.0 |
| 20260506080537 | 58 | 0 | 8.0 | 26.0 | 0.00 | 0.00 | 0.00 | 94 | 1012.9 |
| 20260506072516 | 57 | 0 | 6.0 | 18.0 | 0.00 | 0.00 | 0.00 | 94 | 1012.9 |